Ocala, FL

10:52 PM EDT on May 22, 2017 (GMT -0400)
Ocala Regional-Taylor

Weather History for KOCF - December, 2012

Change the Weather History Date:

Sunday, December 16, 2012

  Actual Average Record
Temperature  
Mean Temperature 66 °F -  
Max Temperature 78 °F 67 °F 84 °F (2000)
Min Temperature 53 °F 43 °F 28 °F (2002)
Growing Degree Days 16 (Base 50)    
Moisture  
Dew Point 49 °F    
Average Humidity 67    
Maximum Humidity 77    
Minimum Humidity 42    
Precipitation  
Precipitation 0.00 in - - ()
Sea Level Pressure  
Sea Level Pressure 30.03 in    
Wind  
Wind Speed 2 mph (SW)    
Max Wind Speed 13 mph    
Max Gust Speed -    
Visibility 8 miles    
Events      
Averages and records for this station are not official NWS values.
T = Trace of Precipitation, MM = Missing Value Source: NWS Daily Summary

Daily Weather History Graph

Daily Weather History Graph

Search for Another Location

Airport or City:

Trip Planner

Search our weather history database for the weather conditions in past years. The results will help you decide how hot, cold, wet, or windy it might be!

Date:

Astronomy

Dec. 16, 2012 Rise Set
Actual Time 7:16 AM EST 5:33 PM EST
Civil Twilight 6:50 AM EST 5:59 PM EST
Nautical Twilight 6:20 AM EST 6:29 PM EST
Astronomical Twilight 5:51 AM EST 6:58 PM EST
Moon 10:01 AM EST (12/16) 9:30 PM EST (12/16)
Length of Visible Light 11h 09m
Length of Day
10h 17m
Waxing Crescent, 16% of the Moon is Illuminated
Dec 16
Waxing Crescent
Dec 20
First Quarter
Dec 28
Full
Jan 4
Last Quarter
Jan 11
New

Hourly Weather History & Observations

Time (EST) Temp. Dew Point Humidity Pressure Visibility Wind Dir Wind Speed Gust Speed Precip Events Conditions
12:15 AM 59.0 °F 50.0 °F 72% 30.08 in 10.0 mi Calm Calm - N/A   Clear
12:35 AM 59.0 °F 50.0 °F 72% 30.08 in 10.0 mi Calm Calm - N/A   Clear
12:55 AM 59.0 °F 50.0 °F 72% 30.08 in 9.0 mi Calm Calm - N/A   Clear
1:15 AM 57.2 °F 48.2 °F 72% 30.07 in 3.0 mi North 3.5 mph - N/A   Clear
1:55 AM 57.2 °F 48.2 °F 72% 30.06 in 1.8 mi North 3.5 mph - N/A   Clear
2:15 AM 57.2 °F 48.2 °F 72% 30.05 in 1.8 mi Calm Calm - N/A   Clear
2:35 AM 55.4 °F 46.4 °F 72% 30.06 in 0.8 mi North 3.5 mph - N/A   Unknown
2:55 AM 55.4 °F 48.2 °F 77% 30.06 in 1.2 mi Calm Calm - N/A   Clear
3:15 AM 55.4 °F 46.4 °F 72% 30.06 in 2.0 mi Calm Calm - N/A   Clear
3:55 AM 53.6 °F 46.4 °F 77% 30.06 in 3.0 mi Calm Calm - N/A   Partly Cloudy
4:15 AM 53.6 °F 46.4 °F 77% 30.06 in 0.8 mi Calm Calm - N/A   Unknown
4:35 AM 53.6 °F 46.4 °F 77% 30.06 in 0.5 mi Calm Calm - N/A   Unknown
4:55 AM 53.6 °F 44.6 °F 72% 30.05 in 1.8 mi Calm Calm - N/A   Clear
5:15 AM 53.6 °F 46.4 °F 77% 30.04 in 0.2 mi Calm Calm - N/A   Mostly Cloudy
5:35 AM 53.6 °F 46.4 °F 77% 30.05 in 8.0 mi North 3.5 mph - N/A   Clear
5:55 AM 55.4 °F 46.4 °F 72% 30.06 in 6.0 mi North - - N/A   Clear
6:15 AM 53.6 °F 46.4 °F 77% 30.06 in 8.0 mi Calm Calm - N/A   Clear
6:35 AM 53.6 °F 44.6 °F 72% 30.06 in 9.0 mi Calm Calm - N/A   Clear
6:50 AM 53.6 °F 44.6 °F 72% 30.06 in 8.0 mi Calm Calm - N/A   Partly Cloudy
8:50 AM 62.6 °F 53.6 °F 72% 30.07 in 10.0 mi Calm Calm - N/A   Clear
9:50 AM 69.8 °F 55.4 °F 60% 30.07 in 10.0 mi South 6.9 mph - N/A   Clear
10:50 AM 73.4 °F 55.4 °F 53% 30.05 in 10.0 mi SSW 12.7 mph - N/A   Partly Cloudy
11:50 AM 75.2 °F 55.4 °F 50% 30.04 in 10.0 mi South 6.9 mph - N/A   Scattered Clouds
12:50 PM 78.8 °F 53.6 °F 42% 30.00 in 10.0 mi South 11.5 mph - N/A   Scattered Clouds
1:50 PM 77.0 °F 53.6 °F 44% 29.99 in 10.0 mi SW 6.9 mph - N/A   Scattered Clouds
2:50 PM 78.8 °F 53.6 °F 42% 29.97 in 10.0 mi SW 8.1 mph - N/A   Scattered Clouds
3:50 PM 78.8 °F 53.6 °F 42% 29.96 in 10.0 mi SW 8.1 mph - N/A   Partly Cloudy
4:50 PM 75.2 °F 51.8 °F 44% 29.97 in 10.0 mi WSW 5.8 mph - N/A   Partly Cloudy
5:50 PM 71.6 °F 53.6 °F 53% 29.97 in 10.0 mi West 3.5 mph - N/A   Partly Cloudy
6:50 PM 66.2 °F 51.8 °F 60% 29.97 in 10.0 mi Calm Calm - N/A   Clear
7:55 PM 62.6 °F 51.8 °F 68% 29.97 in 10.0 mi Calm Calm - N/A   Clear
8:15 PM 62.6 °F 51.8 °F 68% 29.98 in 10.0 mi Calm Calm - N/A   Clear
8:35 PM 60.8 °F 51.8 °F 72% 29.99 in 10.0 mi Calm Calm - N/A   Clear
8:55 PM 60.8 °F 50.0 °F 68% 29.99 in 10.0 mi Calm Calm - N/A   Clear
9:15 PM 60.8 °F 50.0 °F 68% 29.99 in 10.0 mi Calm Calm - N/A   Clear
9:35 PM 60.8 °F 50.0 °F 68% 29.99 in 10.0 mi Calm Calm - N/A   Clear
9:55 PM 59.0 °F 48.2 °F 67% 29.99 in 10.0 mi Calm Calm - N/A   Clear
10:15 PM 57.2 °F 48.2 °F 72% 29.99 in 10.0 mi Calm Calm - N/A   Clear
10:35 PM 57.2 °F 48.2 °F 72% 29.99 in 10.0 mi Calm Calm - N/A   Clear
10:55 PM 57.2 °F 48.2 °F 72% 30.00 in 10.0 mi Calm Calm - N/A   Clear
11:15 PM 57.2 °F 48.2 °F 72% 30.00 in 10.0 mi SSW 3.5 mph - N/A   Clear
11:35 PM 57.2 °F 48.2 °F 72% 30.00 in 10.0 mi Calm Calm - N/A   Clear
11:55 PM 57.2 °F 48.2 °F 72% 29.99 in 10.0 mi Calm Calm - N/A   Clear